Location: Austin
(30.3000°N, 97.7500°W)
Time: 02:35:25
(UTC-05:00)

SL-24 R/B - RUBIN 2 - Pass Details

Date: 01 October 2024
Orbit: 570 x 1020 km, 64.6° (Epoch: 06 October)

Event Time Altitude Azimuth Distance (km) Brightness Sun altitude
Rises 21:18:21 0° 328° (NNW) 3,532 8.1 -27.2°
Reaches altitude 10° 21:21:03 10° 324° (NW) 2,521 7.2 -27.8°
Maximum altitude 21:26:44 58° 247° (WSW) 918 4.5 -29.0°
Enters shadow 21:27:16 56° 221° (SW) 934 4.4 -29.1°
